TimeCST,TemperatureF,Dew PointF,Humidity,Sea Level PressureIn,VisibilityMPH,Wind Direction,Wind SpeedMPH,Gust SpeedMPH,PrecipitationIn,Events,Conditions,WindDirDegrees,DateUTC
12:55 AM,66.0,63.7,92,30.09,10.0,Calm,Calm,-,N/A,,Mostly Cloudy,0,2013-11-07 06:55:00
1:55 AM,65.3,63.5,94,30.08,10.0,NNE,3.5,-,N/A,,Mostly Cloudy,20,2013-11-07 07:55:00
2:55 AM,65.3,63.5,94,30.08,10.0,Calm,Calm,-,N/A,,Mostly Cloudy,0,2013-11-07 08:55:00
3:55 AM,65.3,63.9,95,30.07,10.0,ENE,4.6,-,N/A,,Mostly Cloudy,60,2013-11-07 09:55:00
4:55 AM,64.4,63.0,95,30.07,10.0,ENE,4.6,-,N/A,,Mostly Cloudy,60,2013-11-07 10:55:00
5:55 AM,65.1,63.7,95,30.08,10.0,Calm,Calm,-,N/A,,Mostly Cloudy,0,2013-11-07 11:55:00
6:55 AM,66.7,64.4,92,30.08,10.0,East,3.5,-,N/A,,Mostly Cloudy,90,2013-11-07 12:55:00
7:51 AM,69.8,66.2,88,30.08,10.0,ENE,3.5,-,N/A,,Mostly Cloudy,70,2013-11-07 13:51:00
7:55 AM,69.6,65.5,87,30.10,10.0,ENE,4.6,-,N/A,,Mostly Cloudy,60,2013-11-07 13:55:00
8:11 AM,69.8,66.2,88,30.07,10.0,ENE,4.6,-,N/A,Rain,Light Rain,70,2013-11-07 14:11:00
8:25 AM,69.8,66.2,88,30.08,5.0,ENE,4.6,-,N/A,Rain,Light Rain,70,2013-11-07 14:25:00
8:36 AM,69.8,68.0,94,30.07,3.0,ENE,4.6,-,N/A,Rain,Light Rain,70,2013-11-07 14:36:00
8:56 AM,69.3,67.5,94,30.09,3.0,West,12.7,-,0.00,Rain,Light Rain,280,2013-11-07 14:56:00
9:02 AM,69.8,68.0,94,30.10,2.0,WNW,11.5,-,N/A,Rain,Rain,300,2013-11-07 15:02:00
9:07 AM,69.8,68.0,94,30.10,4.0,WNW,17.3,21.9,N/A,Rain,Light Rain,300,2013-11-07 15:07:00
9:13 AM,68.0,68.0,100,30.10,5.0,NNW,18.4,24.2,N/A,,Light Drizzle,340,2013-11-07 15:13:00
9:25 AM,68.0,66.2,94,30.11,8.0,North,18.4,24.2,N/A,,Overcast,350,2013-11-07 15:25:00
9:43 AM,66.2,64.4,94,30.12,10.0,North,15.0,20.7,N/A,,Overcast,360,2013-11-07 15:43:00
9:55 AM,67.1,65.3,94,30.12,7.0,North,15.0,-,0.05,,Light Drizzle,360,2013-11-07 15:55:00
10:05 AM,68.0,66.2,94,30.12,8.0,North,13.8,20.7,N/A,,Overcast,360,2013-11-07 16:05:00
10:19 AM,68.0,66.2,94,30.12,10.0,North,17.3,23.0,N/A,,Overcast,10,2013-11-07 16:19:00
10:30 AM,68.0,66.2,94,30.12,10.0,NNE,16.1,23.0,N/A,,Overcast,20,2013-11-07 16:30:00
10:42 AM,66.2,64.4,94,30.12,8.0,North,12.7,-,N/A,,Light Drizzle,10,2013-11-07 16:42:00
10:55 AM,66.9,65.1,94,30.12,10.0,NNE,13.8,-,0.01,,Light Drizzle,20,2013-11-07 16:55:00
11:35 AM,68.0,64.4,88,30.09,10.0,North,13.8,-,N/A,,Overcast,10,2013-11-07 17:35:00
11:55 AM,67.6,64.8,90,30.11,10.0,NNW,15.0,20.7,0.00,,Overcast,340,2013-11-07 17:55:00
12:17 PM,68.0,62.6,83,30.09,10.0,North,16.1,23.0,N/A,,Overcast,360,2013-11-07 18:17:00
12:55 PM,68.0,61.9,81,30.10,10.0,North,18.4,25.3,N/A,,Mostly Cloudy,360,2013-11-07 18:55:00
1:56 PM,62.8,57.6,83,30.11,10.0,North,19.6,26.5,N/A,,Overcast,360,2013-11-07 19:56:00
2:02 PM,62.6,57.2,82,30.09,10.0,North,18.4,26.5,N/A,,Overcast,10,2013-11-07 20:02:00
2:55 PM,60.4,54.1,80,30.11,10.0,North,16.1,24.2,N/A,,Mostly Cloudy,360,2013-11-07 20:55:00
3:19 PM,60.8,51.8,72,30.11,10.0,North,18.4,25.3,N/A,,Scattered Clouds,10,2013-11-07 21:19:00
3:55 PM,60.6,51.3,71,30.13,10.0,North,12.7,-,N/A,,Partly Cloudy,360,2013-11-07 21:55:00
4:55 PM,57.4,50.0,76,30.16,10.0,North,10.4,-,N/A,,Partly Cloudy,360,2013-11-07 22:55:00
5:55 PM,54.3,46.9,76,30.18,10.0,North,12.7,-,N/A,,Partly Cloudy,360,2013-11-07 23:55:00
6:55 PM,53.2,46.4,78,30.19,10.0,North,11.5,-,N/A,,Clear,360,2013-11-08 00:55:00
7:55 PM,52.5,45.0,75,30.19,10.0,North,12.7,-,N/A,,Clear,360,2013-11-08 01:55:00
8:55 PM,52.3,42.6,69,30.21,10.0,North,16.1,-,N/A,,Clear,10,2013-11-08 02:55:00
9:55 PM,51.6,41.0,67,30.22,10.0,North,17.3,24.2,N/A,,Clear,10,2013-11-08 03:55:00
10:55 PM,50.4,40.3,68,30.21,10.0,North,16.1,21.9,N/A,,Clear,10,2013-11-08 04:55:00
11:55 PM,49.1,39.0,68,30.21,10.0,North,13.8,-,N/A,,Clear,10,2013-11-08 05:55:00